Weather in Cesenatico

Italy     44°12′04″N   12°23′34″E
temp.,
°C
wind,
m/s
gust,
m/s
humid.,
%
clouds,
%
prec.,
mm/h
press.,
hPa
HPBL,
m
2 march, tue
tue201:00+10wnw22560 0.0 103296
04:00+9nw33580 0.0 1032121
07:00+9nnw12690 0.0 1033116
10:00+10nnw11610 0.0 1034185
13:00+11ese12620 0.0 1034368
16:00+11sse11620 0.0 1033168
19:00+11s22680 0.0 103344
22:00+11wsw22670 0.0 103429
3 march, wed
wed301:00+10w33620 0.0 1034119
04:00+9w33610 0.0 1033129
07:00+9wsw23600 0.0 1033109
10:00+10wnw22570 0.0 1032151
13:00+11ene11550 0.0 1032141
16:00+11ese33570 0.0 1030135
19:00+11se45650 0.0 1030107
22:00+11sse33710 0.0 102957
4 march, thu
thu401:00+10wsw12720 0.0 102823
04:00+10wsw22570 0.0 102659
07:00+10wsw22510 0.0 102576
10:00+10wnw11470 0.0 102599
13:00+11e22480 0.0 1023134
16:00+12ese44600 0.0 1020124
19:00+11e33730 0.0 102048
22:00+11wsw33710 0.0 101944
5 march, fri
fri501:00+10wsw46740 0.0 1018190
04:00+10sw347330 0.0 1017119
07:00+10sw237361 0.0 1016110
10:00+11ssw237232 0.0 1016211
13:00+12e446855 0.0 1015271
16:00+13ese456899 0.0 101491
19:00+12se457698 0.0 101560
22:00+12ssw237567 0.0 101629
6 march, sat
sat601:00+11sw348283 0.4 1017112
04:00+10ne2285100 0.7 1018131
07:00+7ene131588100 5.0 1021731
10:00+5ene131489100 2.6 1025653
13:00+6ene91088100 3.4 1026497
16:00+8ene9106093 0.1 1026950
19:00+8ene785463 0.1 10271124
22:00+8ene99560 0.0 1028978